Dewpoint
35 37 39 39 39 39 39 39 37 36 36 37 38 39 40 41 44 47 47 46 45 47 50 56 58 60 60 60 61 61 60 60 61 60 59 58 58 59 60 60 60 59 59
35 35 37 37 37 38 38 37 37 36 37 39 40 40 41 42 45 47 47 48 48 50 51 54 57 58 58 60 60 60 59 60 60 57 56 52 51 52 54 58 59 59 60
34 34 34 35 37 36 36 35 36 37 38 40 42 43 44 44 45 47 46 46 47 50 54 56 57 57 58 57 58 59 59 57 58 59 54 49 48 51 52 53 54 55 57
34 34 35 34 37 36 35 36 36 37 39 40 42 43 44 45 47 48 49 48 49 54 55 57 58 57 58 58 58 58 58 58 56 57 57 57 56 52 48 52 53 53 54
34 34 35 36 38 35 33 35 36 37 38 40 42 44 44 47 49 49 49 48 54 55 56 58 58 57 58 57 56 56 57 57 57 56 54 54 53 54 53 50 51 52 53
33 35 36 37 37 33 33 35 35 36 37 40 42 43 44 46 46 48 49 52 52 52 52 53 53 53 54 54 55 55 54 54 55 55 56 55 54 52 53 52 52 51 53
34 34 35 36 36 30 31 33 34 35 36 39 41 42 43 46 46 46 48 49 49 49 49 49 49 48 48 51 53 52 52 51 51 50 50 50 51 49 51 51 50 50 50
36 35 36 37 36 30 30 31 33 34 36 38 40 41 42 43 44 44 44 45 46 46 47 48 45 44 45 47 45 45 46 47 47 46 46 47 47 46 46 46 45 44 47
34 35 36 37 34 29 29 30 32 33 34 37 38 38 40 40 41 41 42 41 42 43 40 39 40 42 39 40 40 38 39 39 42 39 39 41 40 42 43 45 45 44 42
32 34 36 37 32 29 29 31 31 33 34 35 36 35 37 38 38 39 38 39 38 36 35 35 35 36 35 35 36 34 34 35 35 35 35 36 38 40 41 39 39 39 41
32 33 34 36 32 28 28 29 29 30 31 33 33 31 33 33 33 33 34 35 35 35 32 32 34 32 32 33 33 32 32 32 32 32 32 33 35 34 35 37 38 38 37
31 30 31 34 31 26 27 25 26 25 25 28 31 29 28 27 27 27 28 28 28 29 29 29 32 31 32 31 30 30 31 31 31 32 32 32 33 33 34 34 36 35 35
24 23 26 29 29 25 25 24 24 24 24 25 26 26 26 26 25 26 27 26 26 27 28 28 29 31 31 31 32 31 31 31 31 31 31 31 31 31 33 33 33 33 33
23 24 26 28 27 25 24 24 23 24 24 25 24 23 24 24 25 25 26 26 26 26 27 27 28 30 31 31 31 31 30 30 30 31 31 31 31 31 32 32 31 32 31
22 23 25 26 28 27 24 23 22 24 24 24 23 23 24 25 25 25 26 26 26 27 27 27 27 27 29 31 31 31 30 29 29 29 30 30 32 31 32 31 31 30 30
22 23 23 25 27 28 26 24 23 23 24 23 23 23 24 25 25 25 25 26 26 26 26 26 26 26 26 31 32 31 30 29 28 28 29 29 30 30 31 31 30 30 31
22 23 22 24 27 29 28 26 24 23 24 23 23 23 24 24 24 25 25 25 25 25 25 26 26 25 26 30 30 33 30 29 28 28 28 27 28 29 28 28 29 29 29
21 23 23 25 27 30 29 27 24 23 23 23 22 23 24 24 24 25 25 24 25 25 25 25 25 25 24 30 30 32 29 28 27 27 27 27 27 27 27 28 28 28 28
21 23 25 27 29 30 29 27 24 23 23 23 23 23 24 24 24 24 24 24 25 25 25 25 24 23 24 30 29 30 28 27 26 27 27 28 26 27 28 28 28 27 26
23 25 25 27 29 29 29 26 25 23 22 22 23 24 25 25 24 24 24 24 25 25 25 24 24 26 24 28 29 29 28 26 27 28 28 27 27 27 28 28 26 26 26
23 24 25 26 27 29 28 26 25 23 23 23 24 24 25 25 24 24 24 24 25 25 24 23 23 24 26 26 28 29 27 27 28 26 26 26 27 27 27 27 27 26 27
23 24 26 26 27 29 27 26 25 25 24 24 24 24 24 25 25 24 24 24 24 24 23 22 23 24 25 27 28 27 26 27 26 26 26 26 27 27 26 26 26 26 26
24 26 27 27 27 29 27 26 26 25 24 24 23 23 24 25 25 24 23 23 24 23 22 22 23 24 24 25 27 26 26 25 26 26 26 26 26 25 25 25 25 24 24
26 27 26 26 26 29 28 27 27 25 24 23 23 24 24 25 25 24 23 23 23 23 22 22 23 24 24 24 24 25 26 27 27 26 26 24 24 23 23 22 23 23 24
28 27 27 27 27 28 28 28 26 25 24 23 23 24 24 27 24 23 23 23 23 22 22 23 24 24 24 24 26 26 26 26 25 25 22 22 22 22 21 21 21 22 22
30 28 28 28 28 29 29 29 27 25 25 24 23 24 24 25 24 23 22 26 25 27 27 27 27 27 28 27 25 25 25 26 24 23 21 21 20 20 19 20 20 20 21
Wind_Speed
7 9 7 8 8 9 13 14 16 15 13 13 12 12 14 17 16 12 15 16 15 15 14 12 11 10 12 11 9 8 14 10 7 5 1 5 11 15 14 13 15 16 15
12 10 8 8 10 12 13 16 13 15 14 11 11 8 12 13 16 17 17 16 15 14 12 12 12 10 11 8 8 12 11 5 9 5 3 4 5 4 8 10 12 14 11
14 14 12 11 12 13 13 15 16 16 14 15 14 12 14 13 13 13 13 12 10 10 10 10 10 9 7 7 6 5 7 7 4 4 5 1 6 5 4 5 8 11 12
14 14 13 13 12 12 11 13 13 14 13 14 13 14 16 16 15 14 15 17 10 7 8 8 7 7 6 8 6 3 4 5 5 2 1 3 3 4 10 2 8 14 17
15 16 14 12 12 9 11 11 12 13 13 13 12 13 14 14 11 12 15 12 3 9 8 2 5 7 7 11 11 11 9 8 5 3 5 3 8 11 12 15 11 9 14
13 15 15 12 12 9 9 10 11 12 13 12 12 12 14 15 13 15 15 7 7 8 10 11 11 10 9 8 6 8 9 7 3 5 2 1 3 6 10 10 13 17 14
14 15 15 12 11 10 9 8 10 12 12 11 11 12 11 12 9 12 13 10 6 6 9 9 9 9 10 9 7 7 8 6 5 7 6 6 4 4 5 7 8 8 10
15 16 16 14 12 11 9 8 8 11 10 10 10 11 9 9 8 10 11 10 10 11 10 9 11 10 9 10 11 11 10 10 9 9 7 4 4 5 5 5 6 6 5
13 15 14 12 12 11 10 8 8 8 7 7 7 8 8 9 8 9 8 8 9 9 11 11 10 11 13 11 12 13 12 11 10 11 8 5 8 6 3 5 6 5 4
11 13 14 13 12 11 9 7 8 9 7 6 5 5 5 6 6 7 8 8 7 7 7 9 10 12 10 9 13 10 12 11 9 11 8 8 4 6 7 5 5 6 5
15 16 15 13 11 10 9 9 8 7 8 6 5 4 3 4 6 7 6 6 7 7 8 8 9 9 9 6 12 14 11 8 7 7 7 5 5 3 3 4 4 3 4
19 20 18 15 12 13 11 10 8 7 7 6 5 2 2 3 5 6 5 5 6 5 6 6 7 8 8 10 13 11 8 8 6 4 4 3 3 7 8 7 5 5 6
24 21 17 14 15 15 14 12 11 11 8 5 4 3 1 2 3 4 4 5 6 6 6 6 6 6 9 11 10 9 8 8 7 5 4 6 9 8 6 6 6 8 8
20 18 16 14 14 16 16 15 13 12 10 8 6 6 4 3 2 2 3 3 4 4 5 5 5 4 5 5 6 7 7 6 6 6 6 5 5 5 6 6 8 8 10
18 15 14 16 14 16 18 16 15 14 13 11 9 9 5 3 2 2 1 1 3 5 5 5 3 3 3 3 3 4 4 4 4 3 2 3 5 5 8 8 8 9 10
20 17 15 14 15 16 19 19 19 18 16 15 14 10 9 8 8 6 6 4 1 2 2 1 2 3 2 2 4 6 3 1 2 2 2 3 3 6 8 9 10 11 12
24 20 18 16 16 15 16 21 21 17 18 17 15 13 12 11 9 7 6 5 5 3 3 2 1 2 2 3 3 6 4 3 3 3 4 6 5 7 8 10 12 13 16
22 19 16 16 15 11 12 14 16 19 20 20 18 16 15 13 10 8 8 6 4 5 5 5 3 3 3 3 2 5 1 2 3 3 4 6 7 7 9 11 12 12 13
23 18 15 16 16 13 11 13 16 19 20 22 22 20 18 16 14 13 10 8 6 5 5 4 4 3 3 2 1 2 1 2 3 4 5 8 9 10 13 12 13 14 15
20 19 18 15 17 16 9 13 19 21 23 25 24 19 18 18 16 13 11 8 7 7 5 5 5 5 4 2 2 2 1 3 3 2 4 7 10 13 15 13 12 14 14
23 21 21 23 23 13 9 16 17 24 28 16 18 18 19 19 17 14 11 10 9 7 6 6 5 4 3 3 3 3 1 4 4 6 7 7 11 14 15 16 11 14 18
25 22 21 23 23 14 12 17 20 24 16 17 18 20 20 17 16 16 13 11 11 10 8 7 6 5 4 4 3 3 3 5 6 8 9 10 15 16 15 12 15 17 15
25 23 21 23 22 16 17 19 25 15 18 18 19 19 18 18 17 17 15 12 13 12 11 9 8 7 5 5 5 4 4 5 7 6 11 14 15 15 13 12 14 14 11
23 23 20 22 24 18 19 24 16 15 18 20 20 17 19 18 17 16 14 14 14 13 11 10 9 8 6 5 6 7 4 6 6 7 4 9 10 10 11 11 10 9 9
23 20 22 21 24 19 19 19 17 15 18 19 18 19 19 19 18 16 16 15 13 14 12 12 10 9 8 8 9 6 4 5 6 6 4 7 7 9 8 9 8 9 10
26 24 22 22 26 19 18 17 15 17 19 18 18 19 18 17 16 15 12 12 11 13 11 8 9 9 8 9 7 5 7 6 7 2 5 6 6 8 10 11 12 11 13
Wind_Direction
279 290 291 297 310 316 323 326 321 320 322 323 324 324 314 310 304 297 294 286 283 263 255 248 247 229 238 244 233 231 230 223 177 150 265 266 254 252 245 249 257 261 258
291 297 297 314 329 321 327 329 319 321 318 311 301 288 294 292 287 291 288 281 275 267 252 250 246 230 231 238 248 233 239 178 170 159 122 341 326 318 260 243 250 262 266
289 299 305 318 324 330 335 327 325 319 311 308 311 305 292 288 300 298 295 292 297 289 279 265 241 227 200 216 223 233 224 161 168 206 143 151 250 322 283 265 268 276 283
272 281 289 300 308 314 325 320 318 318 318 314 317 317 308 304 297 292 290 293 302 311 296 268 229 209 179 141 121 110 73 84 132 51 59 187 210 286 304 303 300 275 271
262 268 271 277 290 301 312 318 322 330 326 326 326 322 314 312 309 306 298 301 25 33 41 91 142 124 114 106 110 96 83 68 106 103 245 240 263 257 247 285 284 293 276
262 264 269 277 281 289 303 325 333 334 333 336 330 335 328 323 340 346 352 347 56 43 55 72 82 78 83 88 106 114 103 106 101 113 31 308 285 275 257 268 284 290 291
266 269 274 279 280 280 289 312 336 336 339 338 336 336 339 331 0 357 352 5 33 52 64 72 93 105 110 106 105 93 81 76 81 63 36 19 23 347 318 291 293 293 305
275 275 274 272 267 264 273 289 312 329 343 344 341 335 349 350 9 34 31 26 24 19 22 49 56 49 52 73 88 79 73 53 57 62 42 1 36 23 3 318 309 318 297
286 280 276 260 253 252 261 262 284 302 329 337 343 351 354 26 13 50 61 53 30 27 36 48 51 53 56 52 58 67 55 56 47 50 42 36 22 14 331 327 327 316 311
292 291 281 267 249 243 250 256 271 278 301 323 337 347 3 31 46 47 51 53 61 54 37 50 66 75 70 72 82 70 63 64 51 48 43 42 15 24 26 2 323 350 321
297 292 295 270 246 235 230 244 255 271 291 303 313 341 9 31 45 66 72 67 41 41 44 50 59 68 77 94 96 79 75 72 54 44 45 38 33 29 1 345 354 356 326
292 295 295 284 245 233 232 233 234 242 258 271 290 286 2 44 57 60 48 53 72 57 61 56 59 58 64 60 66 80 93 108 115 115 80 47 15 19 10 355 337 337 333
296 298 300 283 250 236 232 226 223 232 238 248 251 255 309 359 47 53 43 46 45 40 47 63 74 75 66 70 74 77 64 58 52 43 36 26 17 359 347 338 341 330 317
297 296 297 290 268 240 232 229 225 219 222 226 235 239 233 214 183 117 85 69 53 61 56 53 56 74 75 86 94 92 84 68 44 27 23 13 349 331 324 323 322 315 314
301 297 297 299 283 248 233 225 222 210 210 215 224 233 230 235 269 307 342 102 142 145 146 143 129 131 155 150 123 108 96 63 30 13 358 338 325 338 326 318 306 308 307
295 291 298 299 294 264 240 225 220 211 200 210 221 221 212 210 209 199 188 178 220 341 359 139 160 158 190 249 197 160 150 126 356 330 314 318 317 329 336 331 323 320 318
285 285 290 294 295 283 247 231 221 202 203 210 216 214 214 217 218 218 209 203 196 186 195 222 274 255 267 275 220 154 166 228 272 294 321 333 324 329 314 326 323 317 310
292 280 271 286 292 291 254 232 209 203 204 210 215 215 213 217 215 217 225 231 235 206 192 195 209 221 235 265 172 132 95 325 324 311 322 319 318 321 326 323 314 311 310
291 270 272 283 284 281 264 227 212 204 204 213 215 212 207 209 208 213 217 219 212 220 226 213 201 205 222 295 222 126 292 306 323 315 331 328 329 316 332 324 316 314 312
284 270 281 287 280 282 249 224 219 209 211 215 212 206 202 207 209 211 206 200 201 216 205 215 207 201 209 276 280 287 228 308 316 307 290 319 329 329 329 329 324 317 310
289 275 276 277 273 271 232 239 230 223 221 208 200 201 200 201 203 198 196 197 196 194 202 206 209 213 224 255 280 287 279 306 335 330 324 307 320 326 334 330 332 308 322
297 292 283 278 272 257 229 241 235 234 214 205 206 202 199 195 193 193 193 193 190 199 206 206 216 229 221 228 243 273 294 321 328 319 323 309 329 336 333 337 324 329 337
287 291 280 281 273 247 225 238 247 219 210 206 211 205 196 195 192 193 194 192 196 205 210 206 214 221 209 218 233 255 294 314 315 319 319 330 334 335 340 333 339 339 331
280 288 290 284 284 260 234 233 237 209 205 212 209 199 197 199 198 197 196 196 198 206 211 210 217 217 218 225 233 251 269 300 306 303 338 338 336 335 328 328 320 321 327
287 283 278 276 280 267 250 245 234 205 214 211 202 197 197 194 197 201 200 204 207 200 207 215 210 207 222 232 230 241 268 279 288 325 354 338 336 333 326 323 330 335 328
289 285 278 274 276 265 258 251 224 212 216 213 203 197 192 190 192 193 201 213 210 205 206 199 192 217 226 225 241 257 275 297 308 352 326 326 336 331 326 330 332 333 328